COSMOS 1275 DEB, 18275

Orbit data source: Space-Track

COSMOS 1275 DEB, 18275 is space debris in LEO originally from a launch on Thu, 04 Jun 1981 UTC launched from the Plesetsk Missile And Space Complex (PKMTR). Debris objects in space refer to the collection of defunct objects orbiting the Earth. Examples of debris include non-operational satellites, rocket bodies, and fragments generated from explosions, collisions, or faulty payload assembly.

Loading next visibility...
Identifier
18275, 1981-053LQ
Orbit
LEO
Country
Flag of CISCIS
Related business
Manufacturer
Unknown
Mission
Spacecraft
Bus & Motor
Unknown
Mass
Unknown
Launch date (UTC)
1981-06-04 (45 years ago)
Launch vehicle
Unknown
Launch site
Plesetsk Missile And Space Complex (PKMTR)
Object type
Payload
Rocket body
Debris
Shape & HBR
Unknown shape, 0.1 m
Radar Cross Section
Small (<0.1 m²)

Expand to show TLE details & history
Last TLE update: 12 hours ago

TLE from 12 hours ago
0 COSMOS 1275 DEB
1 18275U 81053LQ  26100.36694535  .00000240  00000-0  24171-3 0  9994
2 18275  82.9250 233.3215 0137462 138.3042 252.7230 13.69301982 47064
Epoch: 2026-04-10T08:48Z
TLE epoch observation values (Epoch: 2026-04-10T08:48:24.078Z)
Latitude
29.33044°
Longitude
-93.40228°
Altitude
1,037.115 km
Speed
7.32 km/s
True Right ascension
15h 49m 11s
True Declination
29° 11' 22"
Sunlit
Object was in full shadow at epoch
Visualization orbit readout
Latitude
Unknown
Longitude
Unknown
Altitude
Unknown
Speed
Unknown
Apparent Right ascension
Unknown
Apparent Declination
Unknown
Sunlit
N/A
Visualization observer readout
Local Sidereal Time
02:39:10
Azimuth
Unknown
Elevation
Unknown
Doppler factor
Unknown
Orbital elements
Apogee altitude
1,100.645 km
Perigee altitude
897.824 km
Semi-major axis
7,377.372 km
Eccentricity
0.01375
Inclination
82.925°
RAAN
233.3215°
Arg. of periapsis
138.3042°
True anomaly
251.22668°
Mean anomaly
252.723°
Eccentric anomaly
251.97406°
Mean motion
3.42524 °/min
Orbital period
105.1 mins
BSTAR
0.00024171
Loading maneuver chart data...
Computing Atmospheric mass density...

Documentation

Showing up to 5 results
|